Location: Christchurch
(43.5330°S, 172.6330°E)
Time: 09:52:11
(UTC+13:00)

ISS - Pass Details

Date: 01 February 2019
Orbit: 403 x 411 km, 51.6° (Epoch: 18 February)

Event Time Altitude Azimuth Distance (km) Brightness Sun altitude
Exits shadow 05:20:33 19° 302° (WNW) 1,074 -2.3 -11.4°
Maximum altitude 05:22:52 88° 211° (SSW) 423 -3.8 -11.1°
Drops below altitude 10° 05:26:15 10° 123° (ESE) 1,499 0.7 -10.6°
Sets 05:28:21 0° 122° (ESE) 2,365 2.3 -10.3°
